STARLINK-36470, 67319

Orbit data source: Space-Track

STARLINK-36470, 67319 is a payload satellite owned by SpaceX/Seattle (US) in LEO that was launched on Sun, 04 Jan 2026 UTC via an FALCON 9 launch vehicle from the Air Force Eastern Test Range (AFETR). Payload-class satellites include a variety of spacecraft equipped with specific instruments for various scientific and technological missions. These include communications satellites like Starlink; space stations such as the ISS; scientific satellites like the Hubble; Earth observation satellites from companies like Planet Labs, Umbra, and HawkEye 360; GPS; miniature CubeSats for education and research; and military/defense satellites.

Loading next visibility...
Identifier
67319, 2026-002Q
Orbit
LEO
Country
Flag of USUS
Related business
Manufacturer
SpaceX/Seattle
Mission
Operational Commercial Communications
Bus & Motor
STARLINK V2MO, Unknown motor
Mass
575 kg wet, ~530 kg dry
Launch date (UTC)
2026-01-04 (5 months ago)
Launch vehicle
FALCON 9
Launch site
Air Force Eastern Test Range (AFETR)
Object type
Payload
Rocket body
Debris
Shape & HBR
Box + 2 Pan, 17.7 m
Radar Cross Section
36.964 m², Large (>1 m²)

Expand to show TLE details & history
Last TLE update: 17 hours ago

TLE from 17 hours ago
0 STARLINK-36470
1 67319U 26002Q   26171.19373824  .00012289  00000-0  45525-3 0  9996
2 67319  43.0010 106.5502 0000917 263.3344  96.7403 15.27588518 26813
Epoch: 2026-06-20T04:38Z
TLE epoch observation values (Epoch: 2026-06-20T04:38:58.983Z)
Latitude
-0.00006°
Longitude
128.39251°
Altitude
482.873 km
Speed
7.626 km/s
True Right ascension
07h 06m 12s
True Declination
0° 00' 00"
Sunlit
Object was in daylight at epoch
Visualization orbit readout
Latitude
Unknown
Longitude
Unknown
Altitude
Unknown
Speed
Unknown
Apparent Right ascension
Unknown
Apparent Declination
Unknown
Sunlit
N/A
Visualization observer readout
Local Sidereal Time
08:42:02
Azimuth
Unknown
Elevation
Unknown
Doppler factor
Unknown
Orbital elements
Apogee altitude
485.598 km
Perigee altitude
484.339 km
Semi-major axis
6,863.106 km
Eccentricity
0.00009
Inclination
43.001°
RAAN
106.5502°
Arg. of periapsis
263.3344°
True anomaly
96.75074°
Mean anomaly
96.7403°
Eccentric anomaly
96.74552°
Mean motion
3.81735 °/min
Orbital period
94.31 mins
BSTAR
0.00045525
Loading maneuver chart data...
Computing Atmospheric mass density...
Loading historical data...
Loading historical data...
Loading historical data...
Loading historical data...
Loading historical data...
Loading historical data...
Loading historical data...

Documentation

Showing up to 5 results
|